�������l�o���
Date,Time,MP-1(��Sv/h),MP-2(��Sv/h),MP-3(��Sv/h),MP-4(��Sv/h),MP-5(��Sv/h),MP-6(��Sv/h),MP-7(��Sv/h),MP-8(��Sv/h),����,����(m/s),���J
2022/01/07,00:00,0.584,0.882,0.557,1.082,0.751,0.350,0.613,0.582,�k��,2.9,��
2022/01/07,00:10,0.584,0.884,0.556,1.083,0.751,0.352,0.613,0.583,�k��,3.3,��
2022/01/07,00:20,0.584,0.883,0.556,1.084,0.752,0.352,0.613,0.581,�k��,2.6,��
2022/01/07,00:30,0.584,0.880,0.557,1.081,0.750,0.352,0.613,0.583,���k��,2.3,��
2022/01/07,00:40,0.586,0.884,0.557,1.084,0.752,0.351,0.613,0.582,���k��,1.2,��
2022/01/07,00:50,0.584,0.880,0.556,1.083,0.751,0.352,0.612,0.581,���k��,1.2,��
2022/01/07,01:00,0.582,0.882,0.557,1.082,0.752,0.350,0.613,0.583,��,1.5,��
2022/01/07,01:10,0.585,0.880,0.558,1.081,0.753,0.351,0.613,0.583,���쐼,1.2,��
2022/01/07,01:20,0.584,0.881,0.556,1.082,0.750,0.352,0.613,0.581,���쐼,1.5,��
2022/01/07,01:30,0.585,0.882,0.555,1.081,0.750,0.351,0.613,0.582,���쐼,2.6,��
2022/01/07,01:40,0.583,0.879,0.555,1.080,0.750,0.351,0.613,0.582,���쐼,3.6,��
2022/01/07,01:50,0.584,0.882,0.555,1.081,0.752,0.352,0.613,0.582,���쐼,4.1,��
2022/01/07,02:00,0.584,0.880,0.556,1.084,0.749,0.351,0.614,0.583,���쐼,3.8,��
2022/01/07,02:10,0.585,0.884,0.554,1.081,0.751,0.352,0.614,0.583,���k��,4.2,��
2022/01/07,02:20,0.586,0.880,0.556,1.082,0.750,0.351,0.613,0.581,���k��,5.7,��
2022/01/07,02:30,0.584,0.882,0.557,1.083,0.750,0.351,0.612,0.583,��,5.3,��
2022/01/07,02:40,0.583,0.881,0.556,1.081,0.751,0.352,0.612,0.582,��,4.1,��
2022/01/07,02:50,0.584,0.878,0.556,1.083,0.751,0.353,0.613,0.582,���쐼,3.8,��
2022/01/07,03:00,0.586,0.882,0.556,1.080,0.750,0.351,0.614,0.583,���쐼,3.7,��
2022/01/07,03:10,0.584,0.883,0.556,1.080,0.749,0.351,0.614,0.585,���쐼,3.4,��
2022/01/07,03:20,0.585,0.883,0.558,1.082,0.751,0.352,0.614,0.582,���쐼,3.8,��
2022/01/07,03:30,0.585,0.885,0.556,1.083,0.750,0.351,0.613,0.580,���쐼,3.0,��
2022/01/07,03:40,0.585,0.882,0.557,1.084,0.751,0.353,0.613,0.582,�쐼,2.3,��
2022/01/07,03:50,0.584,0.881,0.558,1.083,0.751,0.352,0.614,0.583,���쐼,3.1,��
2022/01/07,04:00,0.585,0.881,0.555,1.081,0.751,0.352,0.613,0.583,�쐼,4.0,��
2022/01/07,04:10,0.584,0.881,0.557,1.081,0.751,0.352,0.613,0.582,���쐼,5.3,��
2022/01/07,04:20,0.584,0.880,0.558,1.082,0.750,0.352,0.614,0.581,���쐼,8.2,��
2022/01/07,04:30,0.584,0.879,0.558,1.082,0.749,0.352,0.613,0.583,��,9.3,��
2022/01/07,04:40,0.584,0.879,0.556,1.083,0.750,0.352,0.615,0.582,��,8.1,��
2022/01/07,04:50,0.584,0.882,0.557,1.081,0.752,0.353,0.616,0.582,��,5.4,��
2022/01/07,05:00,0.585,0.881,0.557,1.085,0.750,0.352,0.613,0.582,��,7.4,��
2022/01/07,05:10,0.585,0.882,0.557,1.082,0.751,0.353,0.614,0.583,��,7.1,��
2022/01/07,05:20,0.585,0.881,0.557,1.083,0.750,0.352,0.614,0.582,��,7.7,��
2022/01/07,05:30,0.584,0.884,0.557,1.081,0.750,0.352,0.615,0.581,���k��,8.4,��
2022/01/07,05:40,0.585,0.882,0.555,1.082,0.750,0.351,0.614,0.582,���k��,6.0,��
2022/01/07,05:50,0.584,0.879,0.555,1.082,0.750,0.353,0.614,0.584,�k��,4.9,��
2022/01/07,06:00,0.586,0.880,0.555,1.085,0.750,0.352,0.613,0.582,�k��,4.0,��
2022/01/07,06:10,0.586,0.882,0.554,1.081,0.751,0.350,0.615,0.582,���k��,6.9,��
2022/01/07,06:20,0.583,0.881,0.555,1.082,0.751,0.351,0.614,0.582,���k��,5.3,��
2022/01/07,06:30,0.584,0.882,0.556,1.082,0.749,0.351,0.616,0.582,���k��,7.0,��
2022/01/07,06:40,0.585,0.881,0.556,1.082,0.750,0.351,0.615,0.583,���k��,5.7,��
2022/01/07,06:50,0.584,0.883,0.555,1.081,0.750,0.353,0.616,0.584,���k��,4.5,��
2022/01/07,07:00,0.583,0.881,0.556,1.080,0.748,0.351,0.613,0.582,���k��,5.3,��
2022/01/07,07:10,0.584,0.882,0.556,1.079,0.748,0.352,0.614,0.581,��,2.0,��
2022/01/07,07:20,0.584,0.879,0.556,1.082,0.751,0.353,0.614,0.582,���k��,2.2,��
2022/01/07,07:30,0.584,0.883,0.556,1.083,0.749,0.353,0.614,0.583,�k��,1.2,��
2022/01/07,07:40,0.584,0.881,0.558,1.081,0.750,0.351,0.615,0.582,�k,1.7,��
2022/01/07,07:50,0.585,0.882,0.557,1.081,0.749,0.352,0.614,0.582,�k�k��,1.5,��
2022/01/07,08:00,0.583,0.881,0.556,1.081,0.750,0.352,0.614,0.582,�k,3.5,��
2022/01/07,08:10,0.584,0.882,0.556,1.082,0.751,0.351,0.613,0.582,�k�k��,3.7,��
2022/01/07,08:20,0.584,0.879,0.557,1.084,0.749,0.353,0.615,0.582,�k,3.5,��
2022/01/07,08:30,0.583,0.880,0.556,1.083,0.750,0.352,0.613,0.583,�k,3.9,��
2022/01/07,08:40,0.585,0.881,0.555,1.082,0.750,0.351,0.613,0.583,�k�k��,4.3,��
2022/01/07,08:50,0.583,0.879,0.555,1.081,0.749,0.351,0.613,0.582,�k,4.3,��
2022/01/07,09:00,0.585,0.880,0.555,1.081,0.750,0.352,0.614,0.581,�k�k��,5.1,��
2022/01/07,09:10,0.586,0.879,0.555,1.083,0.749,0.352,0.614,0.582,�k��,6.0,��
2022/01/07,09:20,0.583,0.881,0.558,1.082,0.751,0.352,0.614,0.582,�k��,6.5,��
2022/01/07,09:30,0.586,0.882,0.557,1.080,0.749,0.352,0.616,0.583,�k��,7.9,��
2022/01/07,09:40,0.583,0.880,0.555,1.083,0.749,0.350,0.614,0.582,�k��,6.8,��
2022/01/07,09:50,0.585,0.882,0.556,1.083,0.749,0.353,0.614,0.582,�k��,7.0,��
2022/01/07,10:00,0.582,0.881,0.556,1.080,0.749,0.350,0.613,0.582,�k��,6.6,��
2022/01/07,10:10,0.583,0.882,0.555,1.082,0.747,0.351,0.613,0.582,�k��,7.1,��
2022/01/07,10:20,0.584,0.881,0.555,1.082,0.749,0.351,0.613,0.582,�k��,10.5,��
2022/01/07,10:30,0.585,0.883,0.555,1.080,0.750,0.350,0.614,0.582,�k��,8.6,��
2022/01/07,10:40,0.586,0.879,0.553,1.085,0.748,0.351,0.612,0.582,�k��,9.5,��
2022/01/07,10:50,0.584,0.881,0.556,1.082,0.750,0.351,0.612,0.583,�k��,8.8,��
2022/01/07,11:00,0.584,0.878,0.556,1.082,0.750,0.350,0.612,0.582,�k��,8.4,��
2022/01/07,11:10,0.585,0.879,0.557,1.082,0.750,0.352,0.612,0.583,�k��,6.7,��
2022/01/07,11:20,0.585,0.882,0.557,1.083,0.751,0.351,0.613,0.586,�k��,9.0,��
2022/01/07,11:30,0.587,0.880,0.557,1.082,0.750,0.351,0.615,0.583,�k��,8.9,��
2022/01/07,11:40,0.585,0.883,0.558,1.083,0.751,0.351,0.616,0.584,�k��,8.8,��
2022/01/07,11:50,0.587,0.881,0.557,1.085,0.750,0.351,0.616,0.584,�k��,8.0,��
2022/01/07,12:00,0.584,0.882,0.558,1.082,0.752,0.351,0.615,0.583,�k��,8.2,��
2022/01/07,12:10,0.586,0.881,0.558,1.084,0.753,0.351,0.614,0.583,�k��,8.6,��
2022/01/07,12:20,0.586,0.882,0.558,1.084,0.752,0.351,0.614,0.584,�k��,9.0,��
2022/01/07,12:30,0.587,0.880,0.558,1.084,0.750,0.352,0.615,0.584,�k�k��,8.5,��
2022/01/07,12:40,0.585,0.882,0.558,1.084,0.752,0.351,0.615,0.583,�k��,8.8,��
2022/01/07,12:50,0.586,0.881,0.557,1.084,0.752,0.351,0.613,0.584,�k��,6.9,��
2022/01/07,13:00,0.587,0.882,0.558,1.084,0.752,0.351,0.615,0.583,�k��,7.2,��
2022/01/07,13:10,0.586,0.883,0.557,1.085,0.754,0.352,0.616,0.582,�k��,7.4,��
2022/01/07,13:20,0.586,0.878,0.558,1.085,0.751,0.352,0.615,0.584,�k��,8.6,��
2022/01/07,13:30,0.585,0.880,0.557,1.081,0.750,0.353,0.615,0.583,�k��,8.3,��
2022/01/07,13:40,0.584,0.882,0.555,1.084,0.753,0.351,0.616,0.584,�k��,9.0,��
2022/01/07,13:50,0.584,0.881,0.556,1.085,0.753,0.352,0.616,0.584,�k��,8.8,��
2022/01/07,14:00,0.586,0.879,0.557,1.084,0.752,0.351,0.616,0.585,�k��,7.8,��
2022/01/07,14:10,0.586,0.881,0.558,1.085,0.752,0.351,0.616,0.584,�k��,6.6,��
2022/01/07,14:20,0.585,0.881,0.555,1.085,0.752,0.353,0.615,0.584,�k��,5.9,��
2022/01/07,14:30,0.586,0.880,0.556,1.085,0.751,0.352,0.615,0.584,�k��,6.0,��
2022/01/07,14:40,0.586,0.879,0.556,1.083,0.753,0.351,0.615,0.584,�k��,7.9,��
2022/01/07,14:50,0.588,0.880,0.558,1.084,0.753,0.351,0.615,0.585,�k��,7.5,��
2022/01/07,15:00,0.586,0.882,0.559,1.082,0.753,0.351,0.614,0.585,�k��,7.9,��
2022/01/07,15:10,0.586,0.882,0.559,1.084,0.751,0.351,0.615,0.584,�k��,6.3,��
2022/01/07,15:20,0.584,0.883,0.555,1.083,0.753,0.352,0.616,0.584,�k��,5.5,��
2022/01/07,15:30,0.583,0.882,0.556,1.083,0.754,0.352,0.614,0.583,�k��,5.5,��
2022/01/07,15:40,0.582,0.882,0.558,1.085,0.753,0.352,0.616,0.584,�k��,4.8,��
2022/01/07,15:50,0.583,0.885,0.555,1.085,0.751,0.351,0.614,0.583,�k��,6.2,��
2022/01/07,16:00,0.583,0.883,0.556,1.084,0.751,0.352,0.616,0.582,�k��,4.6,��
2022/01/07,16:10,0.583,0.882,0.557,1.083,0.753,0.352,0.616,0.581,�k��,5.4,��
2022/01/07,16:20,0.583,0.882,0.555,1.084,0.751,0.352,0.614,0.582,���k��,2.6,��
2022/01/07,16:30,0.583,0.881,0.557,1.083,0.752,0.352,0.615,0.585,�k��,2.5,��
2022/01/07,16:40,0.583,0.883,0.558,1.084,0.754,0.351,0.615,0.583,�k��,3.3,��
2022/01/07,16:50,0.583,0.882,0.555,1.083,0.750,0.350,0.616,0.583,�k��,3.7,��
2022/01/07,17:00,0.584,0.884,0.557,1.084,0.751,0.352,0.615,0.584,�k�k��,4.2,��
2022/01/07,17:10,0.583,0.884,0.556,1.082,0.752,0.353,0.614,0.583,�k�k��,4.4,��
2022/01/07,17:20,0.584,0.883,0.557,1.082,0.753,0.351,0.614,0.583,�k��,4.3,��
2022/01/07,17:30,0.583,0.883,0.557,1.085,0.752,0.352,0.614,0.583,�k��,3.9,��
2022/01/07,17:40,0.581,0.884,0.557,1.084,0.751,0.351,0.613,0.583,�k��,3.2,��
2022/01/07,17:50,0.582,0.881,0.557,1.082,0.753,0.352,0.614,0.582,�k��,3.5,��
2022/01/07,18:00,0.583,0.882,0.557,1.082,0.753,0.350,0.612,0.583,�k��,3.0,��
2022/01/07,18:10,0.582,0.880,0.557,1.084,0.752,0.351,0.614,0.583,�k��,4.3,��
2022/01/07,18:20,0.583,0.883,0.556,1.082,0.752,0.350,0.612,0.584,���k��,4.2,��
2022/01/07,18:30,0.582,0.882,0.556,1.085,0.751,0.352,0.612,0.581,���k��,4.3,��
2022/01/07,18:40,0.583,0.882,0.556,1.083,0.750,0.351,0.612,0.582,���k��,3.5,��
2022/01/07,18:50,0.581,0.884,0.556,1.084,0.752,0.351,0.615,0.583,���k��,3.4,��
2022/01/07,19:00,0.584,0.883,0.555,1.082,0.751,0.351,0.614,0.584,���k��,2.2,��
2022/01/07,19:10,0.582,0.883,0.557,1.083,0.749,0.351,0.613,0.581,���k��,2.0,��
2022/01/07,19:20,0.582,0.883,0.557,1.082,0.753,0.350,0.613,0.582,��,1.2,��
2022/01/07,19:30,0.582,0.882,0.556,1.083,0.751,0.351,0.613,0.583,-,CALM,��
2022/01/07,19:40,0.583,0.885,0.556,1.083,0.751,0.350,0.612,0.581,�k,0.9,��
2022/01/07,19:50,0.581,0.883,0.558,1.084,0.752,0.352,0.613,0.583,-,CALM,��
2022/01/07,20:00,0.584,0.883,0.557,1.083,0.751,0.350,0.614,0.582,-,CALM,��
2022/01/07,20:10,0.582,0.883,0.558,1.084,0.754,0.350,0.613,0.579,-,CALM,��
2022/01/07,20:20,0.583,0.882,0.556,1.084,0.751,0.351,0.613,0.581,��,0.8,��
2022/01/07,20:30,0.581,0.882,0.555,1.083,0.752,0.352,0.614,0.584,��쐼,1.2,��
2022/01/07,20:40,0.581,0.883,0.558,1.083,0.753,0.351,0.613,0.582,��쓌,0.6,��
2022/01/07,20:50,0.582,0.883,0.557,1.083,0.752,0.351,0.612,0.581,��쐼,1.2,��
2022/01/07,21:00,0.583,0.884,0.558,1.084,0.752,0.351,0.612,0.583,��,0.8,��
2022/01/07,21:10,0.583,0.884,0.557,1.084,0.753,0.351,0.613,0.580,��,1.2,��
2022/01/07,21:20,0.582,0.884,0.557,1.084,0.752,0.350,0.613,0.580,��쐼,1.7,��
2022/01/07,21:30,0.582,0.883,0.557,1.083,0.750,0.351,0.613,0.581,�쐼,1.5,��
2022/01/07,21:40,0.582,0.883,0.558,1.082,0.754,0.352,0.613,0.582,���쐼,2.3,��
2022/01/07,21:50,0.583,0.880,0.555,1.082,0.752,0.350,0.613,0.581,��,2.6,��
2022/01/07,22:00,0.583,0.883,0.555,1.083,0.752,0.351,0.613,0.582,���k��,2.5,��
2022/01/07,22:10,0.581,0.881,0.555,1.085,0.753,0.352,0.611,0.583,��,2.5,��
2022/01/07,22:20,0.579,0.882,0.555,1.082,0.751,0.351,0.613,0.581,��,1.7,��
2022/01/07,22:30,0.580,0.882,0.556,1.083,0.751,0.351,0.611,0.582,���k��,1.2,��
2022/01/07,22:40,0.581,0.882,0.554,1.080,0.752,0.350,0.611,0.580,��,1.1,��
2022/01/07,22:50,0.582,0.881,0.557,1.084,0.751,0.351,0.611,0.579,���k��,0.8,��
2022/01/07,23:00,0.583,0.881,0.556,1.082,0.754,0.351,0.614,0.581,-,CALM,��
2022/01/07,23:10,0.582,0.881,0.555,1.083,0.751,0.351,0.612,0.581,-,CALM,��
2022/01/07,23:20,0.583,0.880,0.557,1.083,0.751,0.351,0.613,0.580,-,CALM,��
2022/01/07,23:30,0.581,0.882,0.556,1.083,0.751,0.351,0.611,0.582,-,CALM,��
2022/01/07,23:40,0.582,0.882,0.554,1.082,0.750,0.351,0.613,0.582,-,CALM,��
2022/01/07,23:50,0.582,0.882,0.555,1.081,0.751,0.352,0.613,0.581,��쓌,1.2,��
